Regional Weather Roundup
Issued by NWS Upton, NY

Current Version | Previous Version | Text Only | Print | Product List | Glossary Off
Versions: 1 2 3 4 5 6 7 8 9 10 11 12 13 14 15 16 17 18 19 20 21 22 23 24 25 26 27 28 29 30 31 32 33 34 35 36 37 38 39 40 41 42 43 44 45 46 47 48 49 50

000
ASUS41 KOKX 221507
RWROKX

REGIONAL WEATHER ROUNDUP
NATIONAL WEATHER SERVICE NEW YORK NY
1100 AM EDT WED MAR 22 2017

NOTE: "FAIR" INDICATES FEW OR NO CLOUDS BELOW 12,000 FEET WITH NO
SIGNIFICANT WEATHER AND/OR OBSTRUCTIONS TO VISIBILITY.

NYZ071-072-176-178-NJZ106-104-221600-
NEW YORK CITY METRO AREA

CITY           SKY/WX    TMP DP  RH WIND       PRES   REMARKS
Central Park   SUNNY     33   7  33 NW16G31   30.13R WCI  23
Wall St Helipt SUNNY     38  11  32 VRB7      30.13R WCI  33
LaGuardia APRT MOSUNNY   37   9  31 NW24G43   30.11R WCI  26
Kennedy INTL   MOSUNNY   39  14  36 NW28G36   30.10R WCI  28
Breezy Point     N/A     34 N/A N/A NW28G41     N/A  WCI  20
Newark/Liberty MOSUNNY   36   7  29 NW29G39   30.13R WCI  23
Teterboro      SUNNY     34  10  37 NW28G39   30.12R WCI  21
$$

NYZ177-179-078>081-221600-
LONG ISLAND NEW YORK

CITY           SKY/WX    TMP DP  RH WIND       PRES   REMARKS
Jones Beach      N/A     36 N/A N/A NW31G39     N/A  WCI  22
Matinecock PT  NOT AVBL
Farmingdale    SUNNY     36   6  28 NW23G38   30.07R WCI  24
MacArthur/ISP  MOSUNNY   38  11  32 NW28G41   30.03R WCI  26
Shirley        SUNNY     37  10  32 NW28G47   30.03R WCI  25
Westhampton    MOSUNNY   38  12  34 NW26G38   30.02R WCI  26
East Hampton     N/A     35   9  33 NW17G36   29.98R WCI  25
Montauk          N/A     36  11  35 NW24G38   29.97R WCI  24
$$

NYZ052-065-067-221600-
HUDSON VALLEY

CITY           SKY/WX    TMP DP  RH WIND       PRES   REMARKS
White Plains   MOSUNNY   32   5  32 NW32G41   30.06R WCI  17
Newburgh       MOSUNNY   27   9  46 NW29G40   30.13R WCI  11
Montgomery     SUNNY     27  -2  28 NW21G40   30.15R WCI  13
Poughkeepsie   SUNNY     28  -2  27 NW21G33   30.13R WCI  15
Albany         MOSUNNY   23   1  38 W23G33    30.17R WCI   7
$$

NJZ001-105-106-008-010-013-015-019>022-104-221600-
NEW JERSEY

CITY           SKY/WX    TMP DP  RH WIND       PRES   REMARKS
Newark/Liberty MOSUNNY   36   7  29 NW29G39   30.13R WCI  23
Teterboro      SUNNY     34  10  37 NW28G39   30.12R WCI  21
Caldwell       SUNNY     32   7  35 NW22G37   30.14R WCI  19
Somerville     SUNNY     35   9  33 NW18G30   30.13R WCI  24
Linden           N/A     35   6  29 N28G37    30.14R WCI  22
Sussex         SUNNY     28   7  41 NW13G29   30.16R WCI  17
Andover          N/A     29   7  39 N13G24    30.15R WCI  19
Trenton        SUNNY     36  10  34 NW23G36   30.14R WCI  24
Millville      SUNNY     43  15  32 NW22G38   30.13R
Atlantic City  SUNNY     43  13  29 NW29G40   30.10R
Wrightstown    SUNNY     39  10  30 NW28G35   30.10R WCI  28
Toms River     SUNNY     38   8  29 NW18G41   30.12R WCI  28
Belmar         SUNNY    N/A N/A N/A W26       30.10R
$$

PAZ047>061-062-071-221600-
EASTERN PENNSYLVANIA

CITY           SKY/WX    TMP DP  RH WIND       PRES   REMARKS
Philadelphia   MOSUNNY   40   9  28 NW28G36   30.17R WCI  29
Allentown      MOSUNNY   34  10  37 N21G33    30.18R WCI  22
Scranton       PTSUNNY   24   8  50 NW25G35   30.21R WCI   8
$$

CTZ002-004>006-009-010-012-RIZ004-006-007-MAZ004-011-015-221600-
SOUTHERN NEW ENGLAND
 IN CT

CITY           SKY/WX    TMP DP  RH WIND       PRES   REMARKS
Bradley INTL   MOSUNNY   29   7  39 NW20G30   30.03R WCI  16
Hartford       SUNNY     30   8  39 NW22G32   30.05R WCI  17
Danbury        MOSUNNY   30  10  43 N22G31    30.08R WCI  17
Wtrbury/Oxford MOSUNNY   28   9  43 N17G30    30.05R WCI  16
Bridgeport     SUNNY     36  13  38 NW18G31   30.04R WCI  26
Meriden        SUNNY     31   3  30 NW21G39   30.04R WCI  18
New Haven      SUNNY     32  10  40 NW22G36   30.04R WCI  19
Chester          N/A     30   3  31 NW24G38   29.99R WCI  16
Groton         SUNNY     36   8  31 NW25G40   29.96R WCI  24
Wilimantic     SUNNY     34  11  38 NW17G32   29.98R WCI  23

 IN RI

CITY           SKY/WX    TMP DP  RH WIND       PRES   REMARKS
Providence     MOSUNNY   38  15  39 NW22G29   29.90R WCI  27
Block Island     N/A    N/A N/A N/A MISG        N/A
Westerly       SUNNY     37  10  32 NW17G35   29.95R WCI  27
 IN MA

CITY           SKY/WX    TMP DP  RH WIND       PRES   REMARKS
Boston         MOSUNNY   34  16  47 NW21G29   29.90R WCI  22
Worcester      SUNNY     27  10  49 NW28G40   29.88R WCI  11
Westfield      SUNNY     28   9  44 NW26G38   30.02R WCI  13
Provincetown   NOT AVBL
Nantucket      SUNNY     45  23  42 NW22G30   29.83R
$$

ANZ330-335-338-340-345-350-353-355-221600-
COASTAL MARINE OBSERVATIONS


STATION/POSITION TIME  SKY/WX   TEMP    WIND        PRES    VSBY  WAVE
                                AIR SEA DIR/SP/G                  HT/PER
                 (UTC)          (F)     (DEG/KT/KT) (MB)    (MI)  (FT/S)
NY HARB ENTRANCE 1350            37 42  310/ 25/ 31 1016.9          5/ 5
20 S FIRE ISLAND 1450            36 40  320/ 25/ 31 1016.3          7/ 6
GREAT SOUTH BAY  NOT AVBL
23 SSW MONTAUK P 1350            39 42              1012.9          5/ 5
15 E BARNEGAT LI 1430               43                N/A           7/ 5
HUDSON CANYON    1350            42 45  330/ 25/ 33 1014.8          7/ 6
KINGS POINT      1448            33 38              1019.0
EXECUTION ROCKS  NOT AVBL
CENTRAL LI SOUND 1415            35     320/ 25/ 33   N/A           4/ 4
EASTERN LI SOUND NOT AVBL
ROBBINS REEF     1448            33     330/ 24/ 38 1019.9
$$


>>>>>>>>>>>>>>>>>>>>>>>>>>>> KEY <<<<<<<<<<<<<<<<<<<<<<<<<<<
>                                                          <
>     SKY/WX - Sky Condition/Present Weather               <
>     TMP    - Temperature in Fahrenheit                   <
>     DP     - Dew Point in Fahrenheit                     <
>     RH     - Relative Humidity in Percent                <
>     WIND   - Direction (from) and Speed in MPH           <
>     PRES   - Mean Sea Level Pressure (inches of Hg)      <
>     WCI    - Wind Chill Index                            <
>     VSB    - VISIBILITY IN MILES                         <
>     HX     - HEAT INDEX                                  <
>     TC     - TEMPERATURE IN CELSIUS                      <
>     VRB    - VARIABLE WIND DIRECTION                     <
>                                                          <
>>>>>>>>>>>>>>>>>>>>>>>>>>>> KEY <<<<<<<<<<<<<<<<<<<<<<<<<<<



USA.gov is the U.S. government's official web portal to all federal, state and local government web resources and services.